Casa Grande, AZ

11:06 PM MST on November 21, 2019 (GMT -0700)
Casa Grande Municipal

Weather History for KCGZ - September, 2019

Change the Weather History Date:

Friday, September 6, 2019

  Actual Average Record
Temperature  
Mean Temperature 92 °F -  
Max Temperature 104 °F 97 °F 105 °F (2008)
Min Temperature 81 °F 72 °F 64 °F (2004)
Cooling Degree Days 28    
Growing Degree Days 42 (Base 50)    
Moisture  
Dew Point 61 °F    
Average Humidity 35    
Maximum Humidity 51    
Minimum Humidity 22    
Precipitation  
Precipitation 0.00 in - - ()
Sea Level Pressure  
Sea Level Pressure 29.89 in    
Wind  
Wind Speed 4 mph ()    
Max Wind Speed 12 mph    
Max Gust Speed -    
Visibility 10.0 miles    
Events      
Averages and records for this station are not official NWS values.
T = Trace of Precipitation, MM = Missing Value Source: Averaged Metar Reports

Daily Weather History Graph

Daily Weather History Graph

Search for Another Location

Airport or City:

Astronomy

Sep. 06, 2019 Rise Set
Actual Time 6:04 AM MST 6:45 PM MST
Civil Twilight 5:39 AM MST 7:10 PM MST
Nautical Twilight 5:10 AM MST 7:39 PM MST
Astronomical Twilight 4:40 AM MST 8:09 PM MST
Moon 1:52 PM MST (9/6) No Moon Set
Length of Visible Light 13h 30m
Length of Day
12h 40m
First Quarter, 57% of the Moon is Illuminated
Sep 6
First Quarter
Sep 13
Full
Sep 21
Last Quarter
Sep 28
New
Oct 5
First Quarter

Hourly Weather History & Observations

Time (MST) Temp. Heat Index Dew Point Humidity Pressure Visibility Wind Dir Wind Speed Gust Speed Precip Events Conditions
12:56 AM 88.0 °F 88.7 °F 63.0 °F 43% 29.91 in 10.0 mi SW 4.6 mph - N/A   Clear
1:56 AM 87.1 °F 87.0 °F 61.0 °F 41% 29.92 in 10.0 mi ESE 3.5 mph - N/A   Clear
2:56 AM 84.9 °F 84.8 °F 60.1 °F 43% 29.92 in 10.0 mi Calm Calm - N/A   Clear
3:56 AM 82.0 °F 82.4 °F 60.1 °F 47% 29.92 in 10.0 mi ENE 3.5 mph - N/A   Clear
4:56 AM 81.0 °F 81.6 °F 60.1 °F 49% 29.93 in 10.0 mi NE 3.5 mph - N/A   Clear
5:56 AM 82.0 °F 82.7 °F 61.0 °F 49% 29.94 in 10.0 mi ENE 3.5 mph - N/A   Clear
7:56 AM 84.9 °F 86.6 °F 64.9 °F 51% 29.97 in 10.0 mi SSW 9.2 mph - N/A   Clear
8:56 AM 89.1 °F 91.3 °F 66.0 °F 46% 29.98 in 10.0 mi SSW 8.1 mph - N/A   Clear
9:56 AM 91.9 °F 93.3 °F 64.0 °F 39% 29.98 in 10.0 mi West 6.9 mph - N/A   Clear
10:56 AM 96.1 °F 98.3 °F 64.0 °F 35% 29.96 in 9.0 mi West 3.5 mph - N/A   Clear
11:56 AM 97.0 °F 98.3 °F 63.0 °F 32% 29.94 in 10.0 mi Calm Calm - N/A   Clear
12:56 PM 99.0 °F 100.5 °F 63.0 °F 30% 29.92 in 10.0 mi Variable 3.5 mph - N/A   Clear
1:56 PM 102.0 °F 104.6 °F 63.0 °F 28% 29.88 in 10.0 mi Variable 5.8 mph - N/A   Clear
2:56 PM 104.0 °F 104.0 °F 57.9 °F 22% 29.85 in 10.0 mi West 8.1 mph - N/A   Clear
3:56 PM 104.0 °F 104.0 °F 57.9 °F 22% 29.83 in 10.0 mi WNW 4.6 mph - N/A   Clear
4:56 PM 102.9 °F 103.0 °F 59.0 °F 23% 29.82 in 10.0 mi Calm Calm - N/A   Clear
5:56 PM 102.9 °F 103.0 °F 57.9 °F 23% 29.81 in 10.0 mi West 10.4 mph - N/A   Clear
6:56 PM 100.9 °F 100.5 °F 57.9 °F 24% 29.82 in 10.0 mi West 11.5 mph - N/A   Clear
7:56 PM 99.0 °F 99.5 °F 60.1 °F 28% 29.83 in 10.0 mi West 10.4 mph - N/A   Clear
8:56 PM 96.1 °F 96.4 °F 61.0 °F 31% 29.86 in 10.0 mi West 8.1 mph - N/A   Clear
9:56 PM 93.9 °F 93.6 °F 60.1 °F 32% 29.86 in 10.0 mi West 8.1 mph - N/A   Clear
10:56 PM 91.9 °F 91.2 °F 59.0 °F 33% 29.85 in 10.0 mi West 8.1 mph - N/A   Clear
11:56 PM 90.0 °F 88.8 °F 57.9 °F 34% 29.85 in 10.0 mi West 8.1 mph - N/A   Clear